Location: Pandora
(40.9481°N, 83.9611°W)
Time: 03:40:56
(UTC-04:00)

ISS - Pass Details

Date: 04 October 2021
Orbit: 417 x 423 km, 51.6° (Epoch: 27 October)

Event Time Altitude Azimuth Distance (km) Brightness Sun altitude
Rises 21:21:37 0° 295° (WNW) 2,363 1.4 -25.0°
Reaches altitude 10° 21:23:59 10° 280° (W) 1,497 0.1 -25.5°
Enters shadow 21:26:04 21° 244° (WSW) 984 -1.5 -25.8°
